Weather History for Drummond Island, MI

Change the Weather History Date:

Monday, May 13, 2013

  Actual Average (KCIU) Record (KCIU)
Temperature  
Mean Temperature 41 °F -  
Max Temperature 49 °F 61 °F 83 °F (1991)
Min Temperature 33 °F 38 °F 25 °F (1984)
Degree Days  
Heating Degree Days 24    
Moisture  
Dew Point 27 °F    
Average Humidity 63    
Maximum Humidity 87    
Minimum Humidity 35    
Precipitation  
Precipitation 0.00 in - - ()
Sea Level Pressure  
Sea Level Pressure 30.03 in    
Wind  
Wind Speed 7 mph (WNW)    
Max Wind Speed 16 mph    
Max Gust Speed 24 mph    
Visibility 10 miles    
Events      
Averages and records for this station are not official NWS values.
T = Trace of Precipitation, MM = Missing Value Source: NWS Daily Summary

Daily Weather History Graph

Daily Weather History Graph

Search for Another Location

Airport:

Trip Planner

Search our weather history database for the weather conditions in past years. The results will help you decide how hot, cold, wet, or windy it might be!

Date:

Astronomy

May. 13, 2013 Rise Set
Actual Time 6:04 AM EDT 8:58 PM EDT
Civil Twilight 5:30 AM EDT 9:33 PM EDT
Nautical Twilight 4:45 AM EDT 10:18 PM EDT
Astronomical Twilight 3:53 AM EDT 11:11 PM EDT
Moon 8:48 AM EDT (5/13) No Moon Set
Length of Visible Light 16h 03m
Length of Day
14h 53m
Waxing Crescent, 12% of the Moon is Illuminated
May 13
Waxing Crescent
May 18
First Quarter
May 25
Full
May 31
Last Quarter
Jun 8
New

Hourly Weather History & Observations

Time (EDT) Temp. Windchill Dew Point Humidity Pressure Visibility Wind Dir Wind Speed Gust Speed Precip Events Conditions
12:16 AM 34.0 °F 26.6 °F 29.3 °F 83% 29.97 in 10.0 mi WNW 9.2 mph - N/A   Overcast
12:35 AM 34.0 °F 26.0 °F 29.1 °F 82% 29.97 in 10.0 mi West 10.4 mph 16.1 mph N/A   Scattered Clouds
12:55 AM 34.0 °F 28.8 °F 29.1 °F 82% 29.97 in 10.0 mi West 5.8 mph 17.3 mph N/A   Clear
1:16 AM 34.2 °F 28.2 °F 29.1 °F 82% 29.97 in 10.0 mi WNW 6.9 mph - N/A   Scattered Clouds
1:35 AM 34.0 °F 28.0 °F 29.3 °F 83% 29.97 in 10.0 mi WNW 6.9 mph - N/A   Scattered Clouds
1:55 AM 34.0 °F 27.2 °F 29.8 °F 85% 29.97 in 10.0 mi WNW 8.1 mph - N/A   Scattered Clouds
2:16 AM 33.8 °F 29.6 °F 30.0 °F 86% 29.97 in 10.0 mi WNW 4.6 mph - N/A   Scattered Clouds
2:35 AM 34.0 °F 28.8 °F 30.2 °F 86% 29.97 in 10.0 mi WNW 5.8 mph - N/A   Clear
2:56 AM 33.6 °F 29.4 °F 30.2 °F 87% 29.97 in 10.0 mi NW 4.6 mph - N/A   Clear
3:16 AM 33.8 °F 28.6 °F 30.2 °F 87% 29.98 in 10.0 mi NW 5.8 mph - N/A   Clear
3:35 AM 34.0 °F 29.8 °F 30.2 °F 86% 29.98 in 10.0 mi NW 4.6 mph - N/A   Clear
3:56 AM 34.7 °F 30.6 °F 28.4 °F 78% 29.98 in 10.0 mi NW 4.6 mph - N/A   Clear
4:15 AM 34.0 °F 29.8 °F 30.4 °F 87% 29.98 in 10.0 mi West 4.6 mph - N/A   Clear
4:36 AM 33.8 °F 30.8 °F 29.8 °F 85% 29.98 in 10.0 mi WNW 3.5 mph - N/A   Clear
4:56 AM 33.4 °F 28.1 °F 29.8 °F 87% 29.99 in 10.0 mi NW 5.8 mph - N/A   Clear
5:15 AM 34.0 °F 31.0 °F 27.3 °F 77% 29.99 in 10.0 mi WNW 3.5 mph - N/A   Clear
5:36 AM 33.4 °F 30.4 °F 29.1 °F 84% 30.00 in 10.0 mi WNW 3.5 mph - N/A   Clear
5:55 AM 33.6 °F 28.4 °F 28.9 °F 83% 30.00 in 10.0 mi NW 5.8 mph - N/A   Clear
6:15 AM 33.4 °F 30.4 °F 29.3 °F 85% 30.01 in 10.0 mi NW 3.5 mph - N/A   Clear
6:36 AM 33.8 °F 27.7 °F 28.9 °F 82% 30.01 in 10.0 mi NW 6.9 mph - N/A   Clear
6:55 AM 34.2 °F 30.0 °F 28.4 °F 79% 30.02 in 10.0 mi NW 4.6 mph - N/A   Clear
7:15 AM 35.2 °F 30.3 °F 28.4 °F 76% 30.03 in 10.0 mi NW 5.8 mph - N/A   Clear
7:36 AM 35.8 °F 30.9 °F 27.5 °F 72% 30.03 in 10.0 mi NW 5.8 mph - N/A   Clear
7:55 AM 36.5 °F 31.0 °F 25.7 °F 65% 30.04 in 10.0 mi North 6.9 mph - N/A   Clear
8:16 AM 37.4 °F 32.1 °F 28.0 °F 69% 30.05 in 10.0 mi NW 6.9 mph - N/A   Clear
8:36 AM 37.6 °F 31.0 °F 25.5 °F 62% 30.05 in 10.0 mi NNW 9.2 mph - N/A   Clear
8:55 AM 38.3 °F 32.5 °F 26.8 °F 63% 30.05 in 10.0 mi WNW 8.1 mph - N/A   Clear
9:16 AM 38.8 °F 32.6 °F 27.7 °F 64% 30.06 in 10.0 mi WNW 9.2 mph - N/A   Clear
9:36 AM 39.7 °F 33.7 °F 27.5 °F 62% 30.06 in 10.0 mi WNW 9.2 mph - N/A   Clear
9:55 AM 40.3 °F 34.4 °F 26.4 °F 58% 30.06 in 10.0 mi NW 9.2 mph 18.4 mph N/A   Clear
10:16 AM 41.5 °F 36.4 °F 28.9 °F 61% 30.06 in 10.0 mi WNW 8.1 mph - N/A   Clear
10:35 AM 41.9 °F 36.9 °F 26.6 °F 55% 30.06 in 10.0 mi WNW 8.1 mph 18.4 mph N/A   Clear
10:55 AM 42.6 °F 38.4 °F 26.4 °F 53% 30.06 in 10.0 mi WNW 6.9 mph 16.1 mph N/A   Clear
11:16 AM 42.8 °F 37.5 °F 25.7 °F 51% 30.07 in 10.0 mi WNW 9.2 mph 18.4 mph N/A   Clear
11:35 AM 43.9 °F 37.9 °F 26.8 °F 51% 30.07 in 10.0 mi WNW 11.5 mph 18.4 mph N/A   Clear
11:55 AM 43.7 °F 36.6 °F 25.5 °F 49% 30.08 in 10.0 mi WNW 15.0 mph 24.2 mph N/A   Clear
12:16 PM 44.4 °F 40.0 °F 25.3 °F 47% 30.08 in 10.0 mi WNW 8.1 mph 18.4 mph N/A   Clear
12:35 PM 44.8 °F 39.0 °F 25.3 °F 47% 30.08 in 10.0 mi WNW 11.5 mph 19.6 mph N/A   Clear
12:56 PM 46.6 °F - 25.9 °F 44% 30.08 in 10.0 mi WNW 10.4 mph 16.1 mph N/A   Clear
1:16 PM 45.7 °F 38.8 °F 21.7 °F 39% 30.08 in 10.0 mi WNW 16.1 mph 21.9 mph N/A   Clear
1:35 PM 46.6 °F - 23.0 °F 39% 30.09 in 10.0 mi WNW 13.8 mph 21.9 mph N/A   Clear
1:56 PM 47.8 °F - 23.9 °F 39% 30.08 in 10.0 mi NW 8.1 mph 18.4 mph N/A   Clear
2:16 PM 47.5 °F - 20.7 °F 35% 30.08 in 10.0 mi NW 8.1 mph 19.6 mph N/A   Clear
2:35 PM 48.7 °F - 23.4 °F 37% 30.07 in 10.0 mi WNW 9.2 mph 16.1 mph N/A   Clear
2:56 PM 48.6 °F - 24.3 °F 39% 30.07 in 10.0 mi WNW 9.2 mph 16.1 mph N/A   Clear
3:15 PM 48.2 °F - 22.6 °F 37% 30.07 in 10.0 mi NNW 6.9 mph - N/A   Clear
3:35 PM 49.5 °F - 24.3 °F 37% 30.06 in 10.0 mi WNW 5.8 mph - N/A   Clear
4:36 PM 49.5 °F - 25.3 °F 39% 30.06 in 10.0 mi West 6.9 mph - N/A   Clear
4:55 PM 48.4 °F - 26.8 °F 43% 30.05 in 10.0 mi SW 9.2 mph - N/A   Scattered Clouds
5:15 PM 48.0 °F - 25.2 °F 41% 30.06 in 10.0 mi West 6.9 mph - N/A   Clear
5:36 PM 48.7 °F - 26.1 °F 41% 30.06 in 10.0 mi West 6.9 mph - N/A   Scattered Clouds
5:55 PM 48.2 °F - 26.6 °F 43% 30.06 in 10.0 mi WSW 3.5 mph - N/A   Scattered Clouds
6:15 PM 48.4 °F - 27.0 °F 43% 30.05 in 10.0 mi West 5.8 mph - N/A   Scattered Clouds
6:36 PM 47.3 °F - 27.3 °F 46% 30.06 in 10.0 mi West 3.5 mph - N/A   Clear
6:55 PM 47.5 °F - 27.1 °F 45% 30.06 in 10.0 mi West 8.1 mph - N/A   Clear
7:36 PM 45.7 °F 43.4 °F 27.3 °F 49% 30.05 in 10.0 mi West 4.6 mph - N/A   Clear
8:16 PM 44.1 °F 42.5 °F 26.8 °F 51% 30.04 in 10.0 mi WSW 3.5 mph - N/A   Clear
8:35 PM 43.0 °F - 27.1 °F 54% 30.04 in 10.0 mi Calm Calm - N/A   Clear
8:56 PM 42.3 °F - 26.1 °F 53% 30.04 in 10.0 mi Calm Calm - N/A   Clear
9:16 PM 41.4 °F 39.4 °F 27.3 °F 57% 30.04 in 10.0 mi WSW 3.5 mph - N/A   Clear
9:35 PM 41.9 °F 40.0 °F 27.0 °F 55% 30.04 in 10.0 mi West 3.5 mph - N/A   Clear
9:56 PM 41.4 °F - 27.7 °F 58% 30.05 in 10.0 mi Calm Calm - N/A   Clear
10:16 PM 39.6 °F - 29.5 °F 67% 30.04 in 10.0 mi Calm Calm - N/A   Clear
10:35 PM 40.5 °F - 28.2 °F 62% 30.04 in 10.0 mi Calm Calm - N/A   Clear
10:56 PM 37.9 °F - 31.3 °F 77% 30.04 in 10.0 mi Calm Calm - N/A   Clear
11:15 PM 37.8 °F - 30.6 °F 75% 30.04 in 10.0 mi Calm Calm - N/A   Clear
11:35 PM 36.9 °F - 31.8 °F 82% 30.04 in 10.0 mi Calm Calm - N/A   Scattered Clouds
11:55 PM 36.5 °F - 31.5 °F 82% 30.04 in 10.0 mi Calm Calm - N/A   Clear